Location: M?digepalle
(16.1753°N, 80.3496°E)
Time: 09:11:35
(UTC+00:00)

ARIANE 5 R/B - Pass Details

Date: 29 October 2020
Orbit: 265 x 31051 km, 5.9° (Epoch: 27 November)

Event Time Altitude Azimuth Distance (km) Brightness Sun altitude
Rises 12:21:47 0° 265° (W) 10,145 10.8 -3.7°
Reaches altitude 10° 12:33:45 10° 257° (WSW) 5,393 8.7 -6.5°
Maximum altitude 12:42:53 27° 203° (SSW) 1,570 4.6 -8.6°
Drops below altitude 10° 12:45:50 10° 141° (SE) 1,646 4.0 -9.3°
Enters shadow 12:46:46 - 129° (SE) 1,967 4.3 -9.5°
